Location: Ahstedt
(52.2048°N, 10.1060°E)
Time: 23:22:30
(UTC+00:00)

Meteor 1-16 Rocket - Pass Details

Date: 18 January 2026
Orbit: 789 x 905 km, 81.2° (Epoch: 7 February)

Event Time Altitude Azimuth Distance (km) Brightness Sun altitude
Rises 06:13:22 0° 184° (S) 3,355 7.6 -9.7°
Reaches altitude 10° 06:15:47 10° 182° (S) 2,410 6.8 -9.4°
Maximum altitude 06:21:11 72° 99° (E) 848 4.5 -8.6°
Drops below altitude 10° 06:26:30 10° 16° (NNE) 2,375 6.5 -7.9°
Sets 06:28:53 0° 15° (NNE) 3,303 7.2 -7.5°
